STARLINK-37254, 68553

Orbit data source: Space-Track

STARLINK-37254, 68553 is a payload satellite owned by SpaceX/Seattle (US) in LEO that was launched on Thu, 02 Apr 2026 UTC via an FALCON 9 launch vehicle from the Air Force Eastern Test Range (AFETR). Payload-class satellites include a variety of spacecraft equipped with specific instruments for various scientific and technological missions. These include communications satellites like Starlink; space stations such as the ISS; scientific satellites like the Hubble; Earth observation satellites from companies like Planet Labs, Umbra, and HawkEye 360; GPS; miniature CubeSats for education and research; and military/defense satellites.

Loading next visibility...
Identifier
68553, 2026-070M
Orbit
LEO
Country
Flag of USUS
Related business
Manufacturer
SpaceX/Seattle
Mission
Operational spacecraft
Bus & Motor
STARLINK V2MO, Unknown motor
Mass
575 kg wet, ~530 kg dry
Launch date (UTC)
2026-04-02 (2 months ago)
Launch vehicle
FALCON 9
Launch site
Air Force Eastern Test Range (AFETR)
Object type
Payload
Rocket body
Debris
Shape & HBR
Unknown shape, 14.5 m
Radar Cross Section
RCS unknown

Expand to show TLE details & history
Last TLE update: 17 hours ago

TLE from 17 hours ago
0 STARLINK-37254
1 68553U 26070M   26145.31547981  .00030037  00000-0  89636-3 0  9996
2 68553  53.1598   6.1526 0001334  56.0707 304.0422 15.34407493  8290
Epoch: 2026-05-25T07:34Z
TLE epoch observation values (Epoch: 2026-05-25T07:34:17.455Z)
Latitude
-0.00005°
Longitude
9.6748°
Altitude
463.072 km
Speed
7.637 km/s
True Right ascension
00h 24m 36s
True Declination
0° 00' 00"
Sunlit
Object was in daylight at epoch
Visualization orbit readout
Latitude
Unknown
Longitude
Unknown
Altitude
Unknown
Speed
Unknown
Apparent Right ascension
Unknown
Apparent Declination
Unknown
Sunlit
N/A
Visualization observer readout
Local Sidereal Time
09:23:52
Azimuth
Unknown
Elevation
Unknown
Doppler factor
Unknown
Orbital elements
Apogee altitude
463.85 km
Perigee altitude
462.025 km
Semi-major axis
6,841.075 km
Eccentricity
0.00013
Inclination
53.1598°
RAAN
6.1526°
Arg. of periapsis
56.0707°
True anomaly
304.02953°
Mean anomaly
304.0422°
Eccentric anomaly
304.03587°
Mean motion
3.83581 °/min
Orbital period
93.85 mins
BSTAR
0.00089636
Loading maneuver chart data...
Computing Atmospheric mass density...
Loading historical data...
Loading historical data...
Loading historical data...
Loading historical data...
Loading historical data...
Loading historical data...
Loading historical data...

Documentation

Showing up to 5 results
|